Regional Weather Roundup
Issued by NWS

Home | Current Version | Previous Version | Text Only | Print | Product List | Glossary Off
Versions: 1 2 3 4 5 6 7 8 9 10 11 12 13 14 15 16 17 18 19 20 21 22 23 24 25 26 27 28 29 30 31 32 33 34 35 36 37 38 39 40 41 42 43 44 45 46 47 48 49 50

804
ASUS44 KLIX 240405
RWRLA
LOUISIANA WEATHER ROUNDUP
NATIONAL WEATHER SERVICE NEW ORLEANS LA
1100 PM CDT WED APR 23 2014

NOTE: "FAIR" INDICATES FEW OR NO CLOUDS BELOW 12,000 FEET WITH NO
      SIGNIFICANT WEATHER AND/OR OBSTRUCTIONS TO VISIBILITY.
      SKY/WX - SKY CONDITION AND SIGNIFICANT WEATHER.
      TMP - AIR TEMPERATURE.    DP   - DEWPOINT TEMPERATURE.
      RH  - RELATIVE HUMIDITY.  PRES - PRESSURE.
      HX  - HEAT INDEX.         WCI  - WIND CHILL INDEX.

*  THESE STATIONS ARE NOT NWS OR FAA STATIONS AND ARE NOT UNDER
   NWS QUALITY CONTROL.

LAZ040-048-061>063-065-066-069-240500-
SOUTHEAST LOUISIANA

CITY           SKY/WX    TMP DP  RH WIND       PRES   REMARKS
N.O. AUDUBON     N/A     70  67  89 MISG        N/A
N.O. INTL ARPT PTCLDY    70  64  81 SW6       29.93S
N.O. LAKEFRONT CLEAR     72  66  81 SW9       29.94R
N.O. DOWNTOWN* FAIR      73  63  68 S6        29.94S
SLIDELL        CLEAR     63  59  87 CALM      29.93R
BATON ROUGE    CLEAR     71  61  70 S7        29.92S
BOOTHVILLE     CLEAR     70  67  90 S6        29.94S
BELLE CHASSE   PTCLDY    66  62  87 SW3       29.93S
BOGALUSA*        N/A     63  59  86 CALM      29.94S
GALLIANO*      CLEAR     67  62  86 CALM      29.94S
NEW ROADS*     FAIR      69  61  76 CALM      29.91S
GONZALES*      FAIR      68  64  89 CALM      29.92F
HAMMOND*       CLEAR     68  61  77 S3        29.94S
HOUMA*           N/A     64  61  91 CALM      29.94S FOG
PORT FOURCHON* CLEAR     72  66  83 SW3       29.95F

$$

LAZ041-044-053-054-240500-
SOUTHWEST LOUISIANA

CITY           SKY/WX    TMP DP  RH WIND       PRES   REMARKS
LAKE CHARLES   CLEAR     67  65  93 S5        29.92R
LAFAYETTE      CLEAR     66  63  90 SW5       29.92R
PATTERSON      CLEAR     66  64  94 SE6       29.95F
SALT POINT       N/A     70  66  87 CALM      29.91F
NEW IBERIA     CLEAR     67  63  87 S5        29.92S
CHENAULT AIRPK CLEAR     69  64  85 S7        29.93S

$$

LAZ027-028-240500-
CENTRAL LOUISIANA

CITY           SKY/WX    TMP DP  RH WIND       PRES   REMARKS
FORT POLK      CLEAR     67  61  81 S3        29.90S
ALEXANDRIA INT CLEAR     68  58  70 S3        29.89R
ALEXANDRIA     PTCLDY    60  56  86 CALM      29.90R

$$

LAZ001-002-240500-
NORTHWEST LOUISIANA

CITY           SKY/WX    TMP DP  RH WIND       PRES   REMARKS
SHREVEPORT     PTCLDY    72  55  55 SE9       29.85S
BARKSDALE AFB  CLEAR     67  56  68 E7        29.87R
DTN SHREVEPORT CLEAR     70  54  56 SE7       29.86S

$$

LAZ014-016-240500-
NORTHEAST LOUISIANA

CITY           SKY/WX    TMP DP  RH WIND       PRES   REMARKS
MONROE         CLEAR     64  47  53 CALM      29.91S
TALLULAH       CLEAR     60  54  80 CALM      29.91S

$$




USA.gov is the U.S. government's official web portal to all federal, state and local government web resources and services.